Wind_Speed
7 8 9 9 9 9 9 9 8 9 9 10 10 11 11 12 12 12 12 12 12 12 12 12 12 12 11 11 11 11 11 13
10 11 11 12 12 12 12 13 14 14 14 14 14 15 16 17 16 16 17 17 17 17 16 16 16 16 16 15 15 15 15 17
17 16 17 17 17 16 15 16 15 15 16 16 17 18 18 19 21 21 21 22 22 22 20 18 18 19 19 18 18 18 18 21
25 16 16 18 16 14 16 16 16 16 17 19 19 20 22 23 24 23 22 21 24 24 22 19 19 20 21 20 21 20 20 22
14 17 13 13 10 13 14 13 14 16 18 18 19 20 22 25 27 27 25 24 24 25 24 22 20 20 20 20 20 21 22 24
18 6 20 13 19 23 19 18 19 27 29 27 24 24 24 28 28 31 28 28 27 25 27 26 30 33 32 29 28 28 27 26
8 3 6 14 18 19 19 21 24 20 21 27 36 36 28 27 27 36 32 33 30 33 30 32 31 30 31 34 32 33 33 31
8 9 13 16 19 21 20 19 18 15 19 25 23 25 22 25 22 23 25 27 28 30 33 34 36 35 36 35 36 34 34 37
6 10 12 17 19 21 15 19 15 24 31 29 28 33 33 32 33 31 30 32 30 30 30 32 33 35 38 40 39 36 35 35
5 9 10 12 14 14 17 22 24 25 25 28 27 30 31 33 35 34 31 31 33 35 36 37 35 34 33 36 38 35 33 33
4 5 6 8 10 12 16 18 20 21 23 25 27 29 31 32 34 36 37 38 37 37 39 42 42 38 34 35 39 35 34 35
7 10 14 18 17 16 17 18 19 19 20 23 26 28 29 30 30 30 31 34 39 41 39 39 40 50 47 44 41 41 39 38
15 18 20 21 22 21 20 18 17 19 21 22 23 24 26 28 32 34 36 40 39 37 37 35 36 40 42 43 42 46 52 48
20 24 24 25 24 24 23 22 20 18 18 19 21 24 27 30 32 34 35 37 35 34 34 33 32 34 35 36 37 41 42 46
24 26 28 28 28 27 25 22 20 20 20 20 22 24 26 28 30 32 33 34 33 32 32 31 29 27 30 32 33 30 28 25
25 27 27 27 27 27 25 24 22 21 23 25 27 28 30 32 33 31 30 28 30 31 31 30 30 28 28 29 31 32 32 30
28 28 29 29 27 26 24 22 20 21 23 26 29 31 32 34 35 34 31 28 28 29 31 31 32 32 31 31 30 30 31 37
29 29 29 29 30 30 28 23 20 21 24 26 28 31 32 33 33 31 28 28 29 30 31 31 33 34 35 35 36 36 34 36
32 31 30 29 30 31 30 30 29 26 25 26 28 30 29 31 31 31 33 34 34 34 35 35 36 38 38 37 37 37 39 40
31 30 28 30 32 32 29 26 26 29 32 32 33 36 38 38 40 40 41 41 42 42 43 42 41 42 42 43 43 41 40 40
Wind_Direction
212 223 234 238 236 234 236 241 247 257 261 261 261 267 272 275 273 271 272 275 275 272 268 267 264 262 263 264 265 268 274 277
240 235 238 235 236 238 240 246 251 254 258 264 268 269 270 271 275 277 277 275 273 270 268 267 269 268 266 264 261 259 260 265
254 241 231 234 238 244 254 262 268 275 277 279 280 279 279 278 278 277 274 275 273 269 267 268 269 270 265 260 258 260 254 255
225 247 253 257 259 274 283 282 279 281 284 284 286 282 280 279 278 278 277 277 274 279 275 271 274 267 263 263 263 265 263 263
10 222 243 262 282 289 281 283 284 283 281 282 288 288 286 287 288 285 283 280 281 280 281 279 278 282 273 269 261 269 269 264
15 229 241 278 278 299 300 306 300 300 295 289 289 297 289 303 295 292 291 292 286 289 292 288 285 277 274 277 277 279 274 262
359 193 244 240 243 259 276 285 290 298 311 295 283 282 288 295 298 288 287 297 291 287 283 284 283 281 278 272 272 274 278 274
321 243 275 271 269 275 281 283 284 303 309 301 301 304 305 307 310 300 295 291 286 284 284 281 278 277 276 275 273 272 275 276
290 272 269 269 269 273 272 289 276 278 287 289 279 282 289 298 286 285 293 293 294 292 288 283 280 279 278 274 272 271 273 273
264 255 266 263 265 267 267 273 280 287 290 287 290 290 286 288 291 292 287 284 283 282 283 284 282 278 277 276 275 271 267 265
19 8 343 334 323 308 297 297 295 294 295 296 295 291 288 287 286 286 287 291 293 290 288 283 276 272 271 273 274 265 261 261
359 355 347 343 339 321 309 309 308 304 297 292 291 290 292 293 293 291 290 294 301 301 298 290 281 267 266 266 264 264 265 260
0 357 350 345 338 333 331 327 314 304 300 298 294 294 294 293 292 293 294 298 303 300 298 302 294 286 279 272 271 268 263 264
355 347 347 349 345 341 337 330 322 313 302 295 293 293 291 292 293 295 298 302 305 306 303 302 303 300 297 294 284 269 267 268
348 350 352 349 344 340 338 332 324 317 309 299 291 289 290 290 295 299 301 304 306 305 301 301 301 299 297 299 297 290 278 271
344 350 350 343 338 336 334 328 324 316 309 305 304 303 303 304 306 307 306 301 302 305 306 302 300 297 295 299 300 299 298 281
343 344 343 337 334 335 333 325 316 308 303 302 303 303 304 305 308 311 307 301 300 298 300 302 302 300 296 292 288 287 288 289
338 340 341 339 337 332 333 327 320 311 312 310 306 307 310 313 316 314 312 307 304 299 296 294 293 293 295 294 292 287 281 277
335 335 333 330 325 323 323 321 324 324 322 318 313 312 312 313 314 311 309 308 306 301 296 293 291 290 289 289 286 284 282 279
326 327 326 323 321 321 322 322 321 323 325 324 323 322 321 318 314 312 310 307 305 301 298 295 291 287 284 284 283 281 278 276
Height
3197 3199 3200 3201 3200 3199 3198 3198 3197 3198 3197 3197 3196 3196 3197 3197 3195 3193 3192 3191 3190 3189 3189 3189 3188 3188 3188 3188 3187 3187 3188 3188
3194 3195 3198 3198 3198 3197 3195 3194 3193 3194 3194 3194 3194 3194 3193 3192 3191 3190 3189 3187 3186 3185 3184 3184 3184 3184 3184 3184 3184 3184 3184 3184
3197 3193 3193 3194 3194 3194 3193 3193 3192 3192 3192 3193 3192 3191 3190 3189 3188 3187 3185 3183 3182 3180 3179 3179 3180 3180 3179 3179 3180 3180 3180 3179
3192 3192 3192 3194 3193 3193 3193 3191 3190 3189 3189 3190 3189 3187 3186 3185 3184 3183 3180 3178 3177 3177 3176 3174 3174 3174 3174 3174 3175 3175 3175 3175
3184 3187 3189 3190 3190 3190 3189 3187 3188 3186 3186 3186 3184 3183 3179 3181 3181 3180 3177 3174 3174 3171 3171 3170 3169 3170 3170 3169 3169 3170 3170 3169
3181 3183 3186 3189 3187 3186 3183 3184 3186 3185 3185 3183 3180 3177 3175 3175 3175 3173 3169 3169 3168 3168 3166 3165 3165 3167 3164 3164 3164 3164 3164 3163
3181 3182 3182 3183 3184 3183 3181 3180 3180 3180 3180 3177 3177 3173 3173 3172 3171 3169 3166 3162 3162 3161 3161 3161 3160 3159 3158 3158 3158 3157 3158 3158
3181 3181 3181 3181 3181 3180 3177 3176 3175 3175 3176 3173 3168 3167 3168 3166 3165 3163 3160 3158 3156 3154 3153 3154 3153 3152 3151 3150 3150 3150 3149 3149
3180 3181 3180 3179 3179 3178 3176 3177 3174 3171 3168 3165 3164 3161 3160 3160 3158 3156 3154 3152 3150 3148 3147 3145 3144 3143 3144 3143 3143 3142 3141 3140
3177 3177 3177 3178 3177 3176 3174 3171 3169 3167 3163 3160 3158 3157 3156 3154 3152 3149 3146 3144 3142 3140 3139 3138 3136 3135 3134 3134 3134 3134 3133 3132
3175 3175 3175 3174 3172 3171 3169 3166 3163 3160 3157 3155 3153 3152 3150 3148 3145 3142 3140 3137 3135 3133 3131 3129 3127 3126 3125 3124 3125 3124 3124 3124
3173 3172 3170 3168 3167 3165 3163 3160 3158 3154 3152 3151 3149 3147 3144 3141 3138 3136 3133 3131 3128 3125 3122 3120 3116 3115 3114 3114 3114 3115 3115 3114
3168 3166 3165 3164 3163 3160 3158 3155 3152 3150 3148 3146 3144 3142 3139 3135 3132 3130 3126 3123 3120 3116 3114 3111 3108 3103 3102 3102 3102 3102 3103 3102
3163 3161 3160 3158 3157 3155 3153 3150 3147 3145 3143 3141 3139 3136 3133 3130 3126 3124 3120 3117 3113 3108 3104 3102 3099 3093 3091 3089 3089 3092 3091 3090
3162 3160 3156 3153 3151 3148 3146 3143 3141 3139 3136 3134 3131 3128 3126 3123 3121 3117 3112 3108 3105 3101 3097 3094 3092 3089 3083 3081 3079 3079 3079 3080
3162 3158 3155 3151 3147 3143 3140 3137 3135 3133 3130 3126 3124 3121 3119 3116 3113 3110 3107 3103 3099 3095 3091 3087 3084 3083 3080 3076 3072 3069 3068 3070
3157 3154 3152 3147 3143 3140 3137 3134 3131 3127 3124 3121 3119 3116 3113 3109 3106 3103 3100 3097 3093 3090 3087 3082 3078 3075 3072 3070 3068 3065 3062 3056
3152 3149 3145 3141 3137 3133 3131 3128 3125 3122 3119 3116 3112 3109 3106 3102 3099 3095 3091 3088 3085 3082 3079 3076 3072 3068 3065 3062 3059 3057 3056 3050
3146 3143 3141 3137 3133 3131 3128 3124 3120 3117 3115 3111 3107 3103 3100 3096 3092 3088 3084 3080 3077 3073 3069 3067 3063 3059 3056 3053 3050 3047 3044 3041
3142 3139 3136 3131 3127 3124 3122 3120 3116 3112 3108 3104 3099 3095 3091 3087 3083 3080 3075 3071 3067 3062 3058 3054 3052 3049 3046 3042 3038 3036 3034 3031